Wind_Speed
40 39 38 37 37 37 36 36 34 32 32 31 31 30 30 29 27 25 24 24 24 25 24 26 27 27 26 26 25 24 23 22 22 21 21 21 21 21 21 21 22 22 21
41 41 40 39 39 40 39 39 39 37 36 35 35 35 35 33 32 29 27 26 27 27 27 27 29 29 28 27 27 26 25 24 24 23 23 22 22 23 22 22 24 24 23
41 40 40 39 39 39 40 39 39 39 38 37 37 37 37 37 35 34 32 30 29 30 29 29 29 29 30 30 29 28 26 26 25 25 24 24 24 24 24 25 26 26 25
38 38 37 37 37 37 38 38 38 39 38 38 37 38 38 39 38 37 36 34 33 32 33 33 32 31 31 31 31 29 28 27 26 26 25 25 25 25 25 26 26 26 26
35 35 34 33 34 34 34 35 35 36 37 37 37 38 39 40 39 39 40 38 37 36 37 36 35 34 33 33 31 30 30 28 27 26 25 25 25 25 25 26 26 26 27
34 33 32 32 32 33 33 33 34 35 36 37 37 37 39 40 41 41 41 40 40 40 40 38 35 35 34 33 31 30 30 29 27 26 25 25 25 25 26 26 27 26 26
34 33 33 32 33 33 33 33 33 34 35 36 37 38 39 40 41 41 42 43 43 42 40 39 38 35 33 32 31 30 29 27 26 26 25 25 25 26 26 26 27 26 26
33 32 32 32 32 33 32 33 34 35 36 36 37 38 38 40 40 40 41 42 41 39 39 38 37 34 31 30 30 29 27 25 24 25 25 25 26 26 26 26 26 26 26
30 31 31 30 30 31 31 31 32 33 34 35 35 36 37 37 38 38 40 39 39 37 37 36 33 31 29 29 30 27 24 23 24 25 26 26 26 26 27 27 26 25 25
24 26 28 28 28 29 29 29 30 30 30 30 31 31 32 33 34 34 35 36 35 34 33 32 30 29 27 26 25 23 22 22 24 25 25 25 25 26 26 26 26 26 25
15 16 19 22 23 24 24 25 25 25 25 25 25 26 27 27 27 27 27 28 27 26 25 24 22 22 21 20 20 21 21 22 23 23 24 25 25 25 26 26 25 25 24
11 11 12 13 14 16 17 17 18 18 18 18 18 19 19 19 18 17 16 15 15 13 13 13 14 15 16 18 19 20 21 22 23 23 23 24 24 24 25 25 25 25 24
3 2 3 4 5 7 7 7 8 8 9 8 9 9 8 8 8 7 6 5 6 6 7 9 11 13 16 17 19 20 21 22 23 24 24 24 23 24 24 24 24 24 24
6 5 6 7 7 6 4 3 4 5 4 3 2 1 1 1 1 1 2 3 4 6 8 11 13 14 16 18 19 20 22 22 23 23 24 24 24 23 23 23 24 24 24
12 11 11 11 11 12 12 11 10 9 9 8 7 6 5 5 5 5 5 5 6 7 9 12 13 15 16 18 20 21 22 22 23 23 23 23 23 23 23 23 23 23 24
18 17 16 15 14 14 14 13 13 11 10 9 9 8 7 7 7 6 6 8 9 11 13 14 15 16 17 19 21 22 22 22 22 23 23 22 22 22 22 23 23 23 23
20 19 18 17 16 15 15 13 13 12 11 10 10 9 9 9 9 9 10 11 12 13 15 16 17 17 18 20 21 21 22 22 23 23 23 21 21 21 22 22 23 22 22
19 18 17 16 15 15 14 13 12 12 11 11 11 11 11 11 11 12 12 13 14 15 16 17 18 18 19 20 21 21 22 22 22 22 21 21 20 21 21 21 21 21 22
18 18 17 16 16 15 15 14 14 13 13 13 13 13 13 12 13 13 13 14 14 15 16 16 17 18 18 19 20 21 21 22 22 21 21 20 20 20 21 20 19 19 19
18 17 17 17 17 17 16 16 15 15 15 15 15 15 14 14 14 14 14 14 14 14 14 14 14 15 16 18 18 19 20 20 20 20 19 19 18 19 19 18 18 18 18
18 17 17 17 17 17 17 17 17 17 17 17 17 17 17 16 16 16 16 16 16 15 14 13 13 13 14 15 16 16 17 17 17 17 17 17 17 17 18 17 17 17 16
17 17 17 17 17 17 18 18 18 19 19 20 20 20 19 18 18 18 18 18 18 17 15 14 14 14 14 14 14 14 13 13 14 14 14 15 15 15 15 16 16 16 15
17 17 17 17 17 17 18 18 19 19 20 21 21 21 21 20 20 20 20 19 19 18 17 17 16 15 14 13 13 12 10 9 9 9 10 11 12 13 13 14 15 14 14
16 17 17 17 17 17 17 18 18 18 19 20 21 22 22 22 22 22 21 21 21 20 20 20 19 18 16 15 13 12 10 8 6 5 5 5 7 9 10 11 12 12 12
15 16 16 16 16 17 17 17 17 18 19 20 21 22 22 23 23 23 22 22 22 22 22 22 22 21 19 17 16 15 13 11 9 7 4 2 1 3 5 7 8 8 8
14 14 14 15 15 15 16 16 16 17 18 19 20 21 21 22 22 23 23 23 23 24 23 23 24 23 22 20 19 18 16 15 13 12 10 8 6 4 2 1 2 3 4
Wind_Direction
268 266 266 266 267 268 269 271 273 274 275 277 277 277 278 279 280 283 285 282 280 278 275 271 267 261 259 261 263 261 261 264 266 269 272 276 279 280 283 283 283 283 282
267 267 266 265 265 266 267 268 270 271 272 272 273 275 276 277 278 280 282 282 282 281 277 274 272 264 258 260 259 258 260 262 265 268 271 273 276 275 276 279 280 281 282
266 266 265 264 263 263 264 265 267 269 269 269 269 271 274 276 277 278 278 280 284 285 281 278 275 268 260 257 255 255 257 258 262 267 269 272 274 275 276 276 277 279 279
265 264 264 262 261 261 262 264 265 266 268 268 268 269 273 274 275 278 279 282 283 286 287 285 277 271 265 259 254 253 256 257 261 265 267 270 273 274 275 276 276 277 278
264 263 262 261 260 259 260 261 262 264 266 267 268 269 270 271 272 275 278 278 281 283 286 287 280 274 269 261 255 251 253 256 258 261 265 267 270 273 275 277 276 276 277
263 263 260 259 258 258 259 260 261 263 264 267 268 269 269 269 272 273 275 277 281 283 283 283 282 277 269 261 257 253 253 255 257 261 264 267 271 273 274 276 278 278 277
261 260 258 257 257 258 259 260 262 263 264 266 268 269 269 268 270 271 273 276 279 281 280 280 280 276 268 262 256 252 251 254 256 261 264 268 271 272 274 276 277 279 278
260 259 258 257 257 258 258 259 261 263 265 266 267 268 269 268 268 269 271 274 278 280 280 280 279 272 263 259 252 248 251 252 258 262 265 269 271 273 276 277 277 278 279
259 257 256 256 256 256 258 259 262 264 266 268 268 268 268 269 269 269 272 274 275 277 279 277 271 265 258 250 246 246 250 255 259 262 265 268 270 273 274 275 276 277 279
261 259 257 255 254 255 257 259 262 265 266 267 266 267 268 269 268 269 268 270 271 273 272 265 262 257 250 246 246 246 251 256 260 264 266 267 270 271 272 273 274 276 277
266 263 260 257 257 256 257 258 261 263 263 264 265 267 267 266 267 268 268 268 266 263 261 256 251 247 245 245 247 250 254 257 261 264 266 267 269 270 271 272 273 274 275
270 268 268 264 257 255 257 258 258 260 261 263 265 267 263 262 264 263 259 256 249 247 249 243 243 244 247 251 253 254 256 259 262 264 265 266 267 268 269 270 271 272 273
243 278 285 252 245 242 242 238 243 248 252 251 249 249 251 254 252 248 240 238 240 241 242 252 256 254 253 254 256 258 260 262 264 264 264 264 265 266 267 269 270 271 272
82 87 84 93 100 104 122 132 124 133 140 136 138 175 218 264 254 267 287 280 272 259 256 259 261 261 260 261 262 262 263 263 264 264 264 264 265 265 267 269 270 271 271
70 74 78 80 86 84 84 84 80 80 78 70 60 53 40 26 10 338 323 312 299 285 278 274 273 271 268 266 265 266 266 265 265 265 266 266 266 266 266 268 269 270 271
69 69 71 76 75 73 70 68 64 60 58 50 42 33 22 10 355 337 321 311 300 292 286 281 280 276 273 269 268 268 267 266 266 266 266 267 267 267 267 267 269 270 272
61 61 63 66 65 65 62 60 57 54 49 43 35 25 12 358 345 334 323 315 307 300 294 288 285 281 277 274 273 272 271 269 267 267 268 268 268 267 267 268 268 269 270
57 56 56 56 57 56 55 52 49 45 40 33 25 15 4 354 346 338 329 320 312 305 298 293 288 283 279 278 276 274 272 271 269 268 267 266 266 265 264 265 266 267 268
50 50 51 51 52 52 51 48 45 41 35 29 21 12 6 0 355 349 342 335 327 319 310 300 293 288 285 282 280 278 275 272 269 266 264 263 262 261 261 263 265 266 267
48 48 48 49 50 50 49 47 43 39 34 28 23 19 15 10 6 2 356 351 345 338 329 318 307 300 295 291 287 283 279 275 272 268 265 262 260 260 260 262 264 265 265
46 46 46 48 50 50 49 47 44 40 35 31 28 25 23 20 16 12 8 4 360 355 350 343 333 323 315 307 300 294 287 280 274 271 267 263 260 258 258 259 261 263 264
47 47 48 49 51 51 49 47 45 42 39 36 33 31 28 26 22 19 16 14 12 8 3 357 350 342 335 328 320 311 300 288 279 273 267 261 257 256 254 253 256 258 261
48 50 50 51 51 51 49 47 46 44 41 38 36 34 32 30 27 25 24 23 21 19 16 11 6 360 354 348 342 336 325 310 296 284 273 262 255 252 252 250 252 255 257
49 50 52 53 53 51 49 48 47 44 41 38 36 35 35 34 32 31 31 30 29 27 24 22 19 15 12 9 5 2 1 354 342 327 300 270 254 248 247 247 249 253 256
50 51 52 53 53 51 48 47 45 43 40 38 37 36 36 35 35 34 34 34 32 30 29 28 26 25 25 25 24 25 27 29 31 30 30 17 290 246 242 245 248 253 259
50 50 51 51 49 46 45 43 41 39 38 37 36 36 36 35 35 35 35 35 34 33 33 32 32 34 35 36 36 38 41 43 46 49 54 61 69 79 98 172 222 238 257
Height
5864 5865 5867 5868 5868 5869 5870 5870 5870 5872 5873 5873 5873 5872 5872 5872 5873 5873 5873 5872 5872 5872 5873 5873 5873 5874 5874 5875 5875 5876 5876 5877 5878 5878 5878 5878 5878 5877 5877 5876 5876 5876 5877
5854 5855 5858 5859 5860 5861 5861 5862 5863 5864 5865 5866 5865 5863 5865 5865 5866 5866 5866 5866 5866 5866 5866 5866 5866 5867 5868 5868 5869 5870 5871 5871 5872 5873 5873 5873 5873 5872 5873 5872 5871 5871 5871
5843 5845 5847 5849 5850 5851 5852 5853 5854 5855 5856 5857 5857 5854 5856 5857 5857 5857 5858 5858 5858 5858 5859 5859 5859 5859 5860 5862 5863 5864 5865 5865 5866 5867 5867 5867 5867 5867 5868 5867 5866 5865 5866
5833 5834 5837 5838 5840 5841 5843 5844 5845 5846 5847 5848 5849 5849 5849 5848 5848 5849 5849 5850 5851 5851 5851 5851 5851 5851 5852 5853 5855 5856 5858 5859 5860 5860 5861 5861 5861 5861 5862 5861 5861 5860 5860
5823 5825 5827 5828 5830 5832 5834 5835 5836 5838 5839 5839 5841 5841 5841 5840 5839 5841 5841 5841 5842 5843 5843 5843 5843 5843 5844 5845 5847 5849 5850 5851 5852 5853 5854 5854 5855 5855 5855 5855 5854 5854 5854
5813 5816 5817 5819 5821 5823 5824 5826 5827 5829 5830 5831 5832 5832 5832 5832 5832 5833 5833 5833 5833 5834 5835 5835 5835 5835 5836 5837 5839 5840 5842 5844 5845 5846 5847 5847 5848 5848 5848 5848 5847 5847 5848
5804 5807 5808 5810 5812 5813 5815 5817 5819 5820 5821 5822 5823 5824 5824 5824 5825 5825 5825 5825 5825 5826 5826 5826 5827 5827 5828 5829 5831 5832 5834 5836 5838 5839 5840 5840 5841 5841 5841 5841 5840 5840 5840
5795 5797 5799 5801 5802 5804 5806 5808 5810 5811 5812 5813 5814 5815 5815 5816 5816 5816 5816 5816 5817 5817 5817 5817 5818 5818 5819 5821 5823 5825 5827 5829 5831 5832 5833 5833 5834 5834 5834 5834 5834 5833 5833
5787 5789 5790 5792 5794 5796 5798 5799 5801 5803 5804 5805 5806 5806 5807 5807 5807 5807 5808 5809 5809 5809 5809 5809 5810 5810 5811 5813 5815 5817 5819 5822 5824 5825 5826 5827 5827 5827 5827 5827 5827 5827 5827
5781 5782 5783 5784 5786 5788 5790 5792 5793 5795 5796 5797 5797 5798 5798 5798 5799 5799 5800 5800 5800 5800 5801 5801 5802 5803 5804 5806 5809 5811 5813 5815 5817 5818 5819 5820 5820 5820 5821 5820 5820 5820 5820
5777 5777 5778 5779 5780 5782 5784 5785 5787 5788 5789 5790 5790 5791 5791 5791 5792 5792 5792 5792 5793 5794 5794 5795 5796 5797 5799 5801 5803 5805 5807 5809 5811 5812 5813 5813 5813 5814 5814 5814 5814 5814 5814
5775 5775 5775 5776 5777 5778 5780 5781 5782 5784 5784 5785 5786 5786 5786 5787 5787 5787 5787 5787 5788 5789 5791 5791 5793 5794 5795 5797 5799 5800 5802 5803 5804 5805 5806 5807 5807 5807 5807 5807 5807 5807 5807
5775 5775 5775 5775 5776 5776 5778 5779 5780 5781 5782 5782 5782 5783 5784 5784 5785 5785 5785 5785 5786 5787 5788 5789 5790 5792 5793 5794 5795 5796 5797 5798 5799 5799 5800 5801 5801 5801 5801 5801 5801 5801 5801
5776 5776 5776 5776 5777 5777 5778 5779 5780 5780 5781 5782 5782 5782 5783 5783 5783 5783 5783 5784 5785 5785 5786 5787 5788 5788 5789 5789 5790 5790 5791 5792 5792 5793 5794 5794 5795 5795 5794 5794 5794 5795 5795
5781 5780 5780 5779 5780 5780 5781 5781 5782 5782 5782 5783 5783 5783 5783 5783 5783 5783 5783 5783 5783 5783 5784 5784 5784 5784 5785 5785 5784 5784 5785 5785 5786 5786 5787 5788 5788 5788 5788 5788 5788 5788 5789
5786 5786 5785 5784 5784 5784 5784 5785 5785 5785 5785 5785 5784 5784 5784 5783 5783 5782 5782 5781 5781 5781 5780 5780 5780 5780 5779 5779 5778 5778 5778 5779 5779 5780 5781 5781 5781 5781 5781 5782 5782 5782 5783
5792 5791 5790 5790 5789 5789 5789 5788 5788 5788 5787 5787 5786 5785 5784 5783 5782 5781 5780 5779 5778 5777 5776 5775 5775 5774 5773 5773 5772 5772 5772 5772 5772 5773 5774 5774 5775 5775 5775 5775 5776 5776 5776
5798 5796 5795 5794 5793 5792 5792 5791 5790 5790 5789 5788 5786 5785 5784 5783 5781 5779 5777 5776 5774 5773 5771 5770 5769 5768 5767 5766 5766 5765 5765 5765 5765 5766 5767 5768 5768 5768 5768 5769 5769 5770 5770
5802 5800 5799 5798 5796 5795 5794 5793 5792 5791 5790 5788 5787 5785 5783 5781 5779 5777 5775 5773 5771 5768 5766 5764 5763 5762 5761 5760 5759 5758 5758 5758 5758 5758 5759 5760 5760 5761 5761 5762 5763 5764 5764
5806 5804 5803 5801 5800 5798 5797 5796 5794 5793 5791 5790 5788 5786 5783 5781 5778 5776 5773 5771 5768 5765 5762 5760 5758 5757 5755 5754 5753 5752 5751 5751 5751 5751 5752 5753 5753 5754 5755 5756 5757 5758 5759
5810 5808 5806 5805 5803 5802 5800 5799 5797 5795 5793 5791 5789 5786 5784 5781 5778 5775 5772 5769 5766 5763 5760 5757 5755 5753 5751 5749 5747 5745 5744 5744 5744 5744 5745 5746 5747 5748 5749 5750 5752 5753 5754
5814 5812 5810 5808 5807 5805 5803 5802 5800 5798 5796 5794 5791 5788 5785 5782 5779 5776 5772 5769 5765 5762 5759 5756 5753 5751 5748 5745 5743 5741 5739 5738 5738 5738 5739 5740 5741 5742 5744 5745 5746 5748 5749
5818 5816 5814 5813 5811 5809 5807 5806 5804 5802 5800 5797 5794 5791 5788 5785 5781 5777 5774 5770 5767 5763 5760 5756 5753 5749 5746 5743 5740 5737 5735 5734 5733 5733 5733 5734 5736 5737 5739 5740 5742 5743 5745
5823 5821 5819 5817 5815 5814 5812 5810 5808 5806 5803 5801 5798 5795 5791 5788 5784 5780 5776 5773 5769 5765 5761 5757 5754 5750 5746 5742 5739 5736 5734 5732 5731 5731 5730 5731 5732 5733 5735 5736 5738 5740 5741
5827 5825 5823 5821 5820 5818 5816 5814 5812 5810 5807 5805 5802 5798 5795 5791 5788 5784 5780 5776 5772 5768 5764 5760 5756 5752 5747 5744 5740 5737 5735 5733 5731 5730 5730 5730 5730 5731 5733 5734 5735 5737 5738
5831 5829 5827 5826 5824 5822 5820 5818 5815 5813 5811 5808 5805 5802 5799 5796 5792 5788 5784 5781 5777 5772 5768 5764 5759 5755 5751 5747 5743 5740 5738 5735 5734 5733 5732 5731 5731 5732 5732 5733 5734 5735 5737